Year,Month,Day,Hour,Minute,Value (Times are PST for insolation in W/m^2)
2013,06,02,00,00,0.00
2013,06,02,00,01,0.00
2013,06,02,00,02,0.00
2013,06,02,00,03,0.00
2013,06,02,00,04,0.00
2013,06,02,00,05,0.00
2013,06,02,00,06,0.00
2013,06,02,00,07,0.00
2013,06,02,00,08,0.00
2013,06,02,00,09,0.00
2013,06,02,00,10,0.00
2013,06,02,00,11,0.00
2013,06,02,00,12,0.00
2013,06,02,00,13,0.00
2013,06,02,00,14,0.00
2013,06,02,00,15,0.00
2013,06,02,00,16,0.00
2013,06,02,00,17,0.00
2013,06,02,00,18,0.00
2013,06,02,00,19,0.00
2013,06,02,00,20,0.00
2013,06,02,00,21,0.00
2013,06,02,00,22,0.00
2013,06,02,00,23,0.00
2013,06,02,00,24,0.00
2013,06,02,00,25,0.00
2013,06,02,00,26,0.00
2013,06,02,00,27,0.00
2013,06,02,00,28,0.00
2013,06,02,00,29,0.00
2013,06,02,00,30,0.00
2013,06,02,00,31,0.00
2013,06,02,00,32,0.00
2013,06,02,00,33,0.00
2013,06,02,00,34,0.00
2013,06,02,00,35,0.00
2013,06,02,00,36,0.00
2013,06,02,00,37,0.00
2013,06,02,00,38,0.00
2013,06,02,00,39,0.00
2013,06,02,00,40,0.00
2013,06,02,00,41,0.00
2013,06,02,00,42,0.00
2013,06,02,00,43,0.00
2013,06,02,00,44,0.00
2013,06,02,00,45,0.00
2013,06,02,00,46,0.00
2013,06,02,00,47,0.00
2013,06,02,00,48,0.00
2013,06,02,00,49,0.00
2013,06,02,00,50,0.00
2013,06,02,00,51,0.00
2013,06,02,00,52,0.00
2013,06,02,00,53,0.00
2013,06,02,00,54,0.00
2013,06,02,00,55,0.00
2013,06,02,00,56,0.00
2013,06,02,00,57,0.00
2013,06,02,00,58,0.00
2013,06,02,00,59,0.00
2013,06,02,01,00,0.00
2013,06,02,01,01,0.00
2013,06,02,01,02,0.00
2013,06,02,01,03,0.00
2013,06,02,01,04,0.00
2013,06,02,01,05,0.00
2013,06,02,01,06,0.00
2013,06,02,01,07,0.00
2013,06,02,01,08,0.00
2013,06,02,01,09,0.00
2013,06,02,01,10,0.00
2013,06,02,01,11,0.00
2013,06,02,01,12,0.00
2013,06,02,01,13,0.00
2013,06,02,01,14,0.00
2013,06,02,01,15,0.00
2013,06,02,01,16,0.00
2013,06,02,01,17,0.00
2013,06,02,01,18,0.00
2013,06,02,01,19,0.00
2013,06,02,01,20,0.00
2013,06,02,01,21,0.00
2013,06,02,01,22,0.00
2013,06,02,01,23,0.00
2013,06,02,01,24,0.00
2013,06,02,01,25,0.00
2013,06,02,01,26,0.00
2013,06,02,01,27,0.00
2013,06,02,01,28,0.00
2013,06,02,01,29,0.00
2013,06,02,01,30,0.00
2013,06,02,01,31,0.00
2013,06,02,01,32,0.00
2013,06,02,01,33,0.00
2013,06,02,01,34,0.00
2013,06,02,01,35,0.00
2013,06,02,01,36,0.00
2013,06,02,01,37,0.00
2013,06,02,01,38,0.00
2013,06,02,01,39,0.00
2013,06,02,01,40,0.00
2013,06,02,01,41,0.00
2013,06,02,01,42,0.00
2013,06,02,01,43,0.00
2013,06,02,01,44,0.00
2013,06,02,01,45,0.00
2013,06,02,01,46,0.00
2013,06,02,01,47,0.00
2013,06,02,01,48,0.00
2013,06,02,01,49,0.00
2013,06,02,01,50,0.00
2013,06,02,01,51,0.00
2013,06,02,01,52,0.00
2013,06,02,01,53,0.00
2013,06,02,01,54,0.00
2013,06,02,01,55,0.00
2013,06,02,01,56,0.00
2013,06,02,01,57,0.00
2013,06,02,01,58,0.00
2013,06,02,01,59,0.00
2013,06,02,02,00,0.00
2013,06,02,02,01,0.00
2013,06,02,02,02,0.00
2013,06,02,02,03,0.00
2013,06,02,02,04,0.00
2013,06,02,02,05,0.00
2013,06,02,02,06,0.00
2013,06,02,02,07,0.00
2013,06,02,02,08,0.00
2013,06,02,02,09,0.00
2013,06,02,02,10,0.00
2013,06,02,02,11,0.00
2013,06,02,02,12,0.00
2013,06,02,02,13,0.00
2013,06,02,02,14,0.00
2013,06,02,02,15,0.00
2013,06,02,02,16,0.00
2013,06,02,02,17,0.00
2013,06,02,02,18,0.00
2013,06,02,02,19,0.00
2013,06,02,02,20,0.00
2013,06,02,02,21,0.00
2013,06,02,02,22,0.00
2013,06,02,02,23,0.00
2013,06,02,02,24,0.00
2013,06,02,02,25,0.00
2013,06,02,02,26,0.00
2013,06,02,02,27,0.00
2013,06,02,02,28,0.00
2013,06,02,02,29,0.00
2013,06,02,02,30,0.00
2013,06,02,02,31,0.00
2013,06,02,02,32,0.00
2013,06,02,02,33,0.00
2013,06,02,02,34,0.00
2013,06,02,02,35,0.00
2013,06,02,02,36,0.00
2013,06,02,02,37,0.00
2013,06,02,02,38,0.00
2013,06,02,02,39,0.00
2013,06,02,02,40,0.00
2013,06,02,02,41,0.00
2013,06,02,02,42,0.00
2013,06,02,02,43,0.00
2013,06,02,02,44,0.00
2013,06,02,02,45,0.00
2013,06,02,02,46,0.00
2013,06,02,02,47,0.00
2013,06,02,02,48,0.00
2013,06,02,02,49,0.00
2013,06,02,02,50,0.00
2013,06,02,02,51,0.00
2013,06,02,02,52,0.00
2013,06,02,02,53,0.00
2013,06,02,02,54,0.00
2013,06,02,02,55,0.00
2013,06,02,02,56,0.00
2013,06,02,02,57,0.00
2013,06,02,02,58,0.00
2013,06,02,02,59,0.00
2013,06,02,03,00,0.00
2013,06,02,03,01,0.00
2013,06,02,03,02,0.00
2013,06,02,03,03,0.00
2013,06,02,03,04,0.00
2013,06,02,03,05,0.00
2013,06,02,03,06,0.00
2013,06,02,03,07,0.00
2013,06,02,03,08,0.00
2013,06,02,03,09,0.00
2013,06,02,03,10,0.00
2013,06,02,03,11,0.00
2013,06,02,03,12,0.00
2013,06,02,03,13,0.00
2013,06,02,03,14,0.00
2013,06,02,03,15,0.00
2013,06,02,03,16,0.00
2013,06,02,03,17,0.00
2013,06,02,03,18,0.00
2013,06,02,03,19,0.00
2013,06,02,03,20,0.00
2013,06,02,03,21,0.00
2013,06,02,03,22,0.00
2013,06,02,03,23,0.00
2013,06,02,03,24,0.00
2013,06,02,03,25,0.00
2013,06,02,03,26,0.00
2013,06,02,03,27,0.00
2013,06,02,03,28,0.00
2013,06,02,03,29,0.00
2013,06,02,03,30,0.00
2013,06,02,03,31,0.00
2013,06,02,03,32,0.00
2013,06,02,03,33,0.00
2013,06,02,03,34,0.00
2013,06,02,03,35,0.00
2013,06,02,03,36,0.00
2013,06,02,03,37,0.00
2013,06,02,03,38,0.00
2013,06,02,03,39,0.00
2013,06,02,03,40,0.00
2013,06,02,03,41,0.00
2013,06,02,03,42,0.00
2013,06,02,03,43,0.00
2013,06,02,03,44,0.00
2013,06,02,03,45,0.00
2013,06,02,03,46,0.00
2013,06,02,03,47,0.00
2013,06,02,03,48,0.00
2013,06,02,03,49,0.00
2013,06,02,03,50,0.00
2013,06,02,03,51,0.00
2013,06,02,03,52,0.00
2013,06,02,03,53,0.00
2013,06,02,03,54,0.00
2013,06,02,03,55,0.00
2013,06,02,03,56,0.00
2013,06,02,03,57,0.00
2013,06,02,03,58,0.00
2013,06,02,03,59,0.00
2013,06,02,04,00,0.00
2013,06,02,04,01,0.00
2013,06,02,04,02,0.00
2013,06,02,04,03,0.00
2013,06,02,04,04,0.00
2013,06,02,04,05,0.00
2013,06,02,04,06,0.00
2013,06,02,04,07,0.00
2013,06,02,04,08,0.00
2013,06,02,04,09,0.00
2013,06,02,04,10,0.00
2013,06,02,04,11,0.00
2013,06,02,04,12,0.00
2013,06,02,04,13,0.00
2013,06,02,04,14,0.00
2013,06,02,04,15,0.00
2013,06,02,04,16,0.00
2013,06,02,04,17,0.00
2013,06,02,04,18,0.00
2013,06,02,04,19,0.00
2013,06,02,04,20,0.00
2013,06,02,04,21,0.00
2013,06,02,04,22,0.00
2013,06,02,04,23,0.00
2013,06,02,04,24,0.00
2013,06,02,04,25,0.00
2013,06,02,04,26,0.00
2013,06,02,04,27,0.00
2013,06,02,04,28,0.00
2013,06,02,04,29,0.00
2013,06,02,04,30,0.00
2013,06,02,04,31,0.00
2013,06,02,04,32,0.00
2013,06,02,04,33,0.00
2013,06,02,04,34,0.00
2013,06,02,04,35,0.00
2013,06,02,04,36,0.00
2013,06,02,04,37,0.00
2013,06,02,04,38,0.00
2013,06,02,04,39,0.00
2013,06,02,04,40,0.00
2013,06,02,04,41,0.00
2013,06,02,04,42,0.00
2013,06,02,04,43,0.00
2013,06,02,04,44,0.00
2013,06,02,04,45,0.00
2013,06,02,04,46,0.00
2013,06,02,04,47,0.00
2013,06,02,04,48,0.00
2013,06,02,04,49,0.00
2013,06,02,04,50,0.00
2013,06,02,04,51,0.00
2013,06,02,04,52,0.00
2013,06,02,04,53,0.00
2013,06,02,04,54,0.00
2013,06,02,04,55,0.00
2013,06,02,04,56,0.00
2013,06,02,04,57,0.00
2013,06,02,04,58,0.00
2013,06,02,04,59,0.00
2013,06,02,05,00,0.00
2013,06,02,05,01,0.00
2013,06,02,05,02,0.00
2013,06,02,05,03,0.00
2013,06,02,05,04,0.00
2013,06,02,05,05,0.00
2013,06,02,05,06,0.00
2013,06,02,05,07,0.00
2013,06,02,05,08,0.00
2013,06,02,05,09,0.00
2013,06,02,05,10,0.00
2013,06,02,05,11,0.00
2013,06,02,05,12,0.00
2013,06,02,05,13,0.00
2013,06,02,05,14,0.00
2013,06,02,05,15,0.00
2013,06,02,05,16,0.00
2013,06,02,05,17,0.00
2013,06,02,05,18,0.00
2013,06,02,05,19,4.70
2013,06,02,05,20,5.00
2013,06,02,05,21,5.00
2013,06,02,05,22,5.00
2013,06,02,05,23,5.00
2013,06,02,05,24,5.40
2013,06,02,05,25,7.00
2013,06,02,05,26,7.00
2013,06,02,05,27,7.00
2013,06,02,05,28,7.00
2013,06,02,05,29,7.70
2013,06,02,05,30,9.00
2013,06,02,05,31,9.00
2013,06,02,05,32,9.00
2013,06,02,05,33,10.20
2013,06,02,05,34,11.00
2013,06,02,05,35,11.00
2013,06,02,05,36,11.00
2013,06,02,05,37,11.00
2013,06,02,05,38,11.00
2013,06,02,05,39,11.80
2013,06,02,05,40,12.00
2013,06,02,05,41,12.00
2013,06,02,05,42,12.00
2013,06,02,05,43,13.90
2013,06,02,05,44,14.00
2013,06,02,05,45,14.20
2013,06,02,05,46,16.00
2013,06,02,05,47,16.40
2013,06,02,05,48,18.20
2013,06,02,05,49,20.10
2013,06,02,05,50,23.00
2013,06,02,05,51,23.70
2013,06,02,05,52,25.00
2013,06,02,05,53,25.40
2013,06,02,05,54,26.00
2013,06,02,05,55,26.00
2013,06,02,05,56,26.00
2013,06,02,05,57,28.30
2013,06,02,05,58,31.80
2013,06,02,05,59,35.60
2013,06,02,06,00,39.20
2013,06,02,06,01,43.00
2013,06,02,06,02,46.50
2013,06,02,06,03,47.00
2013,06,02,06,04,48.80
2013,06,02,06,05,47.20
2013,06,02,06,06,43.90
2013,06,02,06,07,38.70
2013,06,02,06,08,33.40
2013,06,02,06,09,37.80
2013,06,02,06,10,42.80
2013,06,02,06,11,48.00
2013,06,02,06,12,51.00
2013,06,02,06,13,51.60
2013,06,02,06,14,53.30
2013,06,02,06,15,55.70
2013,06,02,06,16,59.70
2013,06,02,06,17,62.50
2013,06,02,06,18,62.50
2013,06,02,06,19,62.50
2013,06,02,06,20,66.60
2013,06,02,06,21,67.60
2013,06,02,06,22,68.40
2013,06,02,06,23,74.90
2013,06,02,06,24,70.70
2013,06,02,06,25,72.90
2013,06,02,06,26,111.40
2013,06,02,06,27,113.50
2013,06,02,06,28,86.00
2013,06,02,06,29,63.70
2013,06,02,06,30,55.60
2013,06,02,06,31,48.50
2013,06,02,06,32,43.80
2013,06,02,06,33,42.40
2013,06,02,06,34,45.10
2013,06,02,06,35,52.70
2013,06,02,06,36,63.00
2013,06,02,06,37,77.40
2013,06,02,06,38,98.70
2013,06,02,06,39,77.40
2013,06,02,06,40,58.80
2013,06,02,06,41,103.20
2013,06,02,06,42,110.50
2013,06,02,06,43,81.50
2013,06,02,06,44,86.20
2013,06,02,06,45,91.40
2013,06,02,06,46,90.90
2013,06,02,06,47,92.20
2013,06,02,06,48,98.60
2013,06,02,06,49,97.50
2013,06,02,06,50,97.80
2013,06,02,06,51,98.00
2013,06,02,06,52,98.00
2013,06,02,06,53,96.80
2013,06,02,06,54,92.50
2013,06,02,06,55,87.20
2013,06,02,06,56,82.60
2013,06,02,06,57,81.40
2013,06,02,06,58,83.30
2013,06,02,06,59,84.60
2013,06,02,07,00,85.30
2013,06,02,07,01,84.00
2013,06,02,07,02,84.00
2013,06,02,07,03,84.90
2013,06,02,07,04,88.00
2013,06,02,07,05,92.60
2013,06,02,07,06,96.20
2013,06,02,07,07,97.00
2013,06,02,07,08,97.60
2013,06,02,07,09,98.00
2013,06,02,07,10,97.20
2013,06,02,07,11,97.80
2013,06,02,07,12,103.10
2013,06,02,07,13,108.50
2013,06,02,07,14,112.60
2013,06,02,07,15,113.00
2013,06,02,07,16,111.20
2013,06,02,07,17,114.20
2013,06,02,07,18,118.30
2013,06,02,07,19,121.40
2013,06,02,07,20,123.40
2013,06,02,07,21,126.30
2013,06,02,07,22,132.10
2013,06,02,07,23,137.70
2013,06,02,07,24,139.00
2013,06,02,07,25,139.80
2013,06,02,07,26,142.40
2013,06,02,07,27,146.10
2013,06,02,07,28,144.50
2013,06,02,07,29,140.30
2013,06,02,07,30,140.30
2013,06,02,07,31,142.90
2013,06,02,07,32,141.80
2013,06,02,07,33,143.40
2013,06,02,07,34,147.90
2013,06,02,07,35,149.00
2013,06,02,07,36,142.70
2013,06,02,07,37,137.50
2013,06,02,07,38,120.00
2013,06,02,07,39,97.60
2013,06,02,07,40,91.40
2013,06,02,07,41,110.00
2013,06,02,07,42,184.50
2013,06,02,07,43,120.60
2013,06,02,07,44,106.50
2013,06,02,07,45,116.00
2013,06,02,07,46,196.10
2013,06,02,07,47,311.80
2013,06,02,07,48,293.20
2013,06,02,07,49,344.80
2013,06,02,07,50,361.30
2013,06,02,07,51,366.00
2013,06,02,07,52,366.00
2013,06,02,07,53,357.60
2013,06,02,07,54,355.20
2013,06,02,07,55,361.90
2013,06,02,07,56,369.20
2013,06,02,07,57,367.80
2013,06,02,07,58,374.60
2013,06,02,07,59,428.20
2013,06,02,08,00,438.00
2013,06,02,08,01,229.00
2013,06,02,08,02,239.40
2013,06,02,08,03,427.80
2013,06,02,08,04,447.50
2013,06,02,08,05,476.30
2013,06,02,08,06,496.90
2013,06,02,08,07,508.00
2013,06,02,08,08,442.20
2013,06,02,08,09,278.00
2013,06,02,08,10,315.00
2013,06,02,08,11,315.00
2013,06,02,08,12,315.00
2013,06,02,08,13,394.60
2013,06,02,08,14,499.00
2013,06,02,08,15,512.00
2013,06,02,08,16,446.30
2013,06,02,08,17,408.00
2013,06,02,08,18,340.30
2013,06,02,08,19,298.50
2013,06,02,08,20,271.30
2013,06,02,08,21,268.40
2013,06,02,08,22,258.90
2013,06,02,08,23,242.60
2013,06,02,08,24,241.00
2013,06,02,08,25,246.20
2013,06,02,08,26,331.80
2013,06,02,08,27,268.20
2013,06,02,08,28,244.00
2013,06,02,08,29,244.00
2013,06,02,08,30,345.50
2013,06,02,08,31,650.00
2013,06,02,08,32,650.00
2013,06,02,08,33,595.20
2013,06,02,08,34,514.70
2013,06,02,08,35,542.30
2013,06,02,08,36,571.80
2013,06,02,08,37,577.50
2013,06,02,08,38,587.00
2013,06,02,08,39,587.00
2013,06,02,08,40,587.00
2013,06,02,08,41,587.00
2013,06,02,08,42,587.00
2013,06,02,08,43,587.00
2013,06,02,08,44,549.40
2013,06,02,08,45,523.80
2013,06,02,08,46,522.00
2013,06,02,08,47,291.80
2013,06,02,08,48,319.00
2013,06,02,08,49,234.60
2013,06,02,08,50,163.60
2013,06,02,08,51,169.00
2013,06,02,08,52,169.00
2013,06,02,08,53,258.10
2013,06,02,08,54,599.50
2013,06,02,08,55,617.00
2013,06,02,08,56,586.70
2013,06,02,08,57,545.00
2013,06,02,08,58,444.10
2013,06,02,08,59,351.50
2013,06,02,09,00,359.50
2013,06,02,09,01,350.00
2013,06,02,09,02,398.60
2013,06,02,09,03,427.00
2013,06,02,09,04,427.00
2013,06,02,09,05,322.00
2013,06,02,09,06,278.30
2013,06,02,09,07,281.90
2013,06,02,09,08,287.20
2013,06,02,09,09,313.10
2013,06,02,09,10,316.00
2013,06,02,09,11,431.70
2013,06,02,09,12,445.00
2013,06,02,09,13,445.00
2013,06,02,09,14,434.10
2013,06,02,09,15,376.00
2013,06,02,09,16,376.00
2013,06,02,09,17,376.00
2013,06,02,09,18,376.00
2013,06,02,09,19,366.40
2013,06,02,09,20,350.80
2013,06,02,09,21,348.90
2013,06,02,09,22,336.60
2013,06,02,09,23,323.20
2013,06,02,09,24,315.10
2013,06,02,09,25,306.40
2013,06,02,09,26,306.10
2013,06,02,09,27,316.80
2013,06,02,09,28,323.80
2013,06,02,09,29,333.80
2013,06,02,09,30,328.40
2013,06,02,09,31,313.40
2013,06,02,09,32,329.00
2013,06,02,09,33,342.30
2013,06,02,09,34,339.00
2013,06,02,09,35,318.10
2013,06,02,09,36,285.60
2013,06,02,09,37,314.00
2013,06,02,09,38,361.30
2013,06,02,09,39,411.00
2013,06,02,09,40,435.50
2013,06,02,09,41,504.00
2013,06,02,09,42,424.80
2013,06,02,09,43,288.30
2013,06,02,09,44,239.80
2013,06,02,09,45,213.50
2013,06,02,09,46,232.70
2013,06,02,09,47,278.90
2013,06,02,09,48,297.00
2013,06,02,09,49,297.00
2013,06,02,09,50,359.30
2013,06,02,09,51,388.00
2013,06,02,09,52,388.00
2013,06,02,09,53,388.00
2013,06,02,09,54,692.20
2013,06,02,09,55,736.10
2013,06,02,09,56,717.90
2013,06,02,09,57,374.00
2013,06,02,09,58,374.00
2013,06,02,09,59,374.00
2013,06,02,10,00,440.60
2013,06,02,10,01,795.80
2013,06,02,10,02,785.50
2013,06,02,10,03,759.00
2013,06,02,10,04,759.00
2013,06,02,10,05,759.00
2013,06,02,10,06,657.10
2013,06,02,10,07,517.00
2013,06,02,10,08,517.00
2013,06,02,10,09,445.40
2013,06,02,10,10,354.90
2013,06,02,10,11,336.00
2013,06,02,10,12,336.00
2013,06,02,10,13,336.00
2013,06,02,10,14,229.90
2013,06,02,10,15,192.00
2013,06,02,10,16,291.20
2013,06,02,10,17,367.00
2013,06,02,10,18,373.00
2013,06,02,10,19,373.00
2013,06,02,10,20,373.00
2013,06,02,10,21,415.70
2013,06,02,10,22,800.00
2013,06,02,10,23,800.00
2013,06,02,10,24,672.20
2013,06,02,10,25,206.20
2013,06,02,10,26,256.40
2013,06,02,10,27,294.00
2013,06,02,10,28,294.00
2013,06,02,10,29,507.90
2013,06,02,10,30,818.20
2013,06,02,10,31,862.20
2013,06,02,10,32,884.00
2013,06,02,10,33,884.00
2013,06,02,10,34,874.40
2013,06,02,10,35,815.30
2013,06,02,10,36,857.40
2013,06,02,10,37,888.00
2013,06,02,10,38,888.00
2013,06,02,10,39,872.00
2013,06,02,10,40,868.00
2013,06,02,10,41,868.00
2013,06,02,10,42,868.00
2013,06,02,10,43,868.00
2013,06,02,10,44,866.10
2013,06,02,10,45,856.30
2013,06,02,10,46,842.00
2013,06,02,10,47,842.00
2013,06,02,10,48,835.40
2013,06,02,10,49,788.50
2013,06,02,10,50,750.00
2013,06,02,10,51,811.80
2013,06,02,10,52,839.60
2013,06,02,10,53,854.00
2013,06,02,10,54,854.00
2013,06,02,10,55,854.00
2013,06,02,10,56,546.00
2013,06,02,10,57,294.00
2013,06,02,10,58,613.60
2013,06,02,10,59,804.80
2013,06,02,11,00,825.00
2013,06,02,11,01,852.80
2013,06,02,11,02,860.00
2013,06,02,11,03,860.00
2013,06,02,11,04,816.80
2013,06,02,11,05,810.10
2013,06,02,11,06,814.20
2013,06,02,11,07,817.90
2013,06,02,11,08,829.00
2013,06,02,11,09,845.60
2013,06,02,11,10,844.00
2013,06,02,11,11,845.30
2013,06,02,11,12,842.20
2013,06,02,11,13,832.90
2013,06,02,11,14,848.80
2013,06,02,11,15,833.80
2013,06,02,11,16,832.70
2013,06,02,11,17,852.20
2013,06,02,11,18,868.00
2013,06,02,11,19,868.00
2013,06,02,11,20,868.00
2013,06,02,11,21,867.30
2013,06,02,11,22,867.00
2013,06,02,11,23,844.90
2013,06,02,11,24,845.00
2013,06,02,11,25,846.20
2013,06,02,11,26,846.80
2013,06,02,11,27,838.10
2013,06,02,11,28,845.50
2013,06,02,11,29,890.50
2013,06,02,11,30,881.20
2013,06,02,11,31,872.20
2013,06,02,11,32,902.00
2013,06,02,11,33,902.00
2013,06,02,11,34,902.00
2013,06,02,11,35,902.00
2013,06,02,11,36,838.00
2013,06,02,11,37,719.00
2013,06,02,11,38,719.00
2013,06,02,11,39,719.00
2013,06,02,11,40,791.50
2013,06,02,11,41,873.10
2013,06,02,11,42,888.40
2013,06,02,11,43,889.20
2013,06,02,11,44,884.00
2013,06,02,11,45,884.00
2013,06,02,11,46,867.10
2013,06,02,11,47,862.60
2013,06,02,11,48,872.30
2013,06,02,11,49,901.80
2013,06,02,11,50,907.00
2013,06,02,11,51,907.00
2013,06,02,11,52,907.00
2013,06,02,11,53,906.80
2013,06,02,11,54,903.20
2013,06,02,11,55,886.60
2013,06,02,11,56,879.00
2013,06,02,11,57,880.80
2013,06,02,11,58,877.60
2013,06,02,11,59,855.80
2013,06,02,12,00,859.50
2013,06,02,12,01,874.00
2013,06,02,12,02,874.00
2013,06,02,12,03,875.40
2013,06,02,12,04,875.90
2013,06,02,12,05,875.00
2013,06,02,12,06,876.20
2013,06,02,12,07,878.40
2013,06,02,12,08,880.40
2013,06,02,12,09,881.00
2013,06,02,12,10,881.00
2013,06,02,12,11,881.00
2013,06,02,12,12,883.70
2013,06,02,12,13,884.00
2013,06,02,12,14,885.90
2013,06,02,12,15,886.00
2013,06,02,12,16,886.20
2013,06,02,12,17,888.00
2013,06,02,12,18,888.20
2013,06,02,12,19,889.40
2013,06,02,12,20,891.00
2013,06,02,12,21,891.00
2013,06,02,12,22,891.00
2013,06,02,12,23,891.70
2013,06,02,12,24,893.00
2013,06,02,12,25,893.90
2013,06,02,12,26,895.50
2013,06,02,12,27,896.00
2013,06,02,12,28,896.00
2013,06,02,12,29,897.20
2013,06,02,12,30,898.00
2013,06,02,12,31,899.50
2013,06,02,12,32,900.00
2013,06,02,12,33,900.00
2013,06,02,12,34,901.70
2013,06,02,12,35,902.00
2013,06,02,12,36,902.00
2013,06,02,12,37,903.90
2013,06,02,12,38,904.00
2013,06,02,12,39,905.00
2013,06,02,12,40,905.00
2013,06,02,12,41,905.00
2013,06,02,12,42,905.00
2013,06,02,12,43,905.50
2013,06,02,12,44,907.00
2013,06,02,12,45,907.00
2013,06,02,12,46,908.60
2013,06,02,12,47,909.30
2013,06,02,12,48,907.80
2013,06,02,12,49,909.00
2013,06,02,12,50,910.60
2013,06,02,12,51,911.50
2013,06,02,12,52,911.60
2013,06,02,12,53,911.30
2013,06,02,12,54,911.00
2013,06,02,12,55,911.00
2013,06,02,12,56,911.80
2013,06,02,12,57,912.00
2013,06,02,12,58,913.70
2013,06,02,12,59,912.20
2013,06,02,13,00,913.80
2013,06,02,13,01,914.10
2013,06,02,13,02,915.80
2013,06,02,13,03,914.20
2013,06,02,13,04,916.00
2013,06,02,13,05,916.00
2013,06,02,13,06,916.00
2013,06,02,13,07,916.00
2013,06,02,13,08,915.40
2013,06,02,13,09,915.40
2013,06,02,13,10,917.30
2013,06,02,13,11,916.80
2013,06,02,13,12,916.00
2013,06,02,13,13,914.00
2013,06,02,13,14,915.20
2013,06,02,13,15,914.80
2013,06,02,13,16,915.30
2013,06,02,13,17,917.40
2013,06,02,13,18,918.00
2013,06,02,13,19,916.40
2013,06,02,13,20,917.70
2013,06,02,13,21,918.00
2013,06,02,13,22,916.20
2013,06,02,13,23,916.00
2013,06,02,13,24,917.80
2013,06,02,13,25,916.30
2013,06,02,13,26,918.80
2013,06,02,13,27,917.70
2013,06,02,13,28,916.40
2013,06,02,13,29,918.00
2013,06,02,13,30,918.00
2013,06,02,13,31,918.00
2013,06,02,13,32,918.00
2013,06,02,13,33,917.20
2013,06,02,13,34,916.00
2013,06,02,13,35,916.90
2013,06,02,13,36,917.00
2013,06,02,13,37,916.00
2013,06,02,13,38,917.30
2013,06,02,13,39,916.70
2013,06,02,13,40,917.40
2013,06,02,13,41,918.00
2013,06,02,13,42,916.40
2013,06,02,13,43,916.00
2013,06,02,13,44,916.00
2013,06,02,13,45,916.00
2013,06,02,13,46,916.00
2013,06,02,13,47,916.00
2013,06,02,13,48,915.80
2013,06,02,13,49,914.00
2013,06,02,13,50,914.00
2013,06,02,13,51,913.60
2013,06,02,13,52,912.00
2013,06,02,13,53,912.60
2013,06,02,13,54,913.40
2013,06,02,13,55,912.00
2013,06,02,13,56,912.00
2013,06,02,13,57,912.00
2013,06,02,13,58,912.00
2013,06,02,13,59,911.50
2013,06,02,14,00,911.00
2013,06,02,14,01,911.00
2013,06,02,14,02,909.60
2013,06,02,14,03,909.00
2013,06,02,14,04,909.00
2013,06,02,14,05,909.00
2013,06,02,14,06,909.00
2013,06,02,14,07,907.20
2013,06,02,14,08,905.20
2013,06,02,14,09,904.10
2013,06,02,14,10,905.00
2013,06,02,14,11,904.10
2013,06,02,14,12,904.90
2013,06,02,14,13,903.70
2013,06,02,14,14,902.00
2013,06,02,14,15,902.00
2013,06,02,14,16,901.50
2013,06,02,14,17,900.00
2013,06,02,14,18,900.00
2013,06,02,14,19,900.00
2013,06,02,14,20,899.10
2013,06,02,14,21,897.10
2013,06,02,14,22,896.00
2013,06,02,14,23,896.00
2013,06,02,14,24,895.40
2013,06,02,14,25,895.00
2013,06,02,14,26,895.00
2013,06,02,14,27,895.00
2013,06,02,14,28,892.00
2013,06,02,14,29,891.00
2013,06,02,14,30,891.00
2013,06,02,14,31,891.00
2013,06,02,14,32,889.10
2013,06,02,14,33,888.00
2013,06,02,14,34,887.90
2013,06,02,14,35,886.00
2013,06,02,14,36,885.70
2013,06,02,14,37,883.60
2013,06,02,14,38,882.00
2013,06,02,14,39,881.70
2013,06,02,14,40,881.00
2013,06,02,14,41,881.00
2013,06,02,14,42,880.20
2013,06,02,14,43,878.20
2013,06,02,14,44,877.00
2013,06,02,14,45,877.00
2013,06,02,14,46,875.80
2013,06,02,14,47,875.00
2013,06,02,14,48,874.40
2013,06,02,14,49,872.60
2013,06,02,14,50,872.00
2013,06,02,14,51,870.40
2013,06,02,14,52,868.30
2013,06,02,14,53,868.00
2013,06,02,14,54,865.30
2013,06,02,14,55,866.90
2013,06,02,14,56,865.00
2013,06,02,14,57,864.90
2013,06,02,14,58,862.80
2013,06,02,14,59,861.00
2013,06,02,15,00,860.80
2013,06,02,15,01,859.60
2013,06,02,15,02,857.40
2013,06,02,15,03,855.40
2013,06,02,15,04,854.70
2013,06,02,15,05,855.20
2013,06,02,15,06,853.60
2013,06,02,15,07,852.10
2013,06,02,15,08,849.90
2013,06,02,15,09,847.90
2013,06,02,15,10,846.40
2013,06,02,15,11,844.70
2013,06,02,15,12,844.00
2013,06,02,15,13,844.00
2013,06,02,15,14,840.80
2013,06,02,15,15,840.00
2013,06,02,15,16,840.00
2013,06,02,15,17,837.30
2013,06,02,15,18,837.00
2013,06,02,15,19,833.00
2013,06,02,15,20,832.90
2013,06,02,15,21,830.90
2013,06,02,15,22,830.00
2013,06,02,15,23,830.00
2013,06,02,15,24,829.20
2013,06,02,15,25,825.40
2013,06,02,15,26,824.00
2013,06,02,15,27,823.60
2013,06,02,15,28,822.20
2013,06,02,15,29,820.10
2013,06,02,15,30,819.00
2013,06,02,15,31,817.40
2013,06,02,15,32,814.80
2013,06,02,15,33,814.00
2013,06,02,15,34,812.70
2013,06,02,15,35,810.60
2013,06,02,15,36,810.00
2013,06,02,15,37,807.70
2013,06,02,15,38,805.30
2013,06,02,15,39,803.20
2013,06,02,15,40,802.10
2013,06,02,15,41,800.10
2013,06,02,15,42,797.90
2013,06,02,15,43,796.00
2013,06,02,15,44,795.90
2013,06,02,15,45,794.70
2013,06,02,15,46,792.40
2013,06,02,15,47,789.00
2013,06,02,15,48,788.10
2013,06,02,15,49,786.60
2013,06,02,15,50,786.50
2013,06,02,15,51,783.20
2013,06,02,15,52,781.10
2013,06,02,15,53,779.50
2013,06,02,15,54,779.00
2013,06,02,15,55,776.70
2013,06,02,15,56,775.00
2013,06,02,15,57,772.90
2013,06,02,15,58,772.00
2013,06,02,15,59,770.50
2013,06,02,16,00,766.80
2013,06,02,16,01,765.20
2013,06,02,16,02,761.60
2013,06,02,16,03,762.70
2013,06,02,16,04,763.00
2013,06,02,16,05,758.00
2013,06,02,16,06,757.80
2013,06,02,16,07,752.30
2013,06,02,16,08,739.20
2013,06,02,16,09,752.40
2013,06,02,16,10,754.00
2013,06,02,16,11,751.60
2013,06,02,16,12,736.00
2013,06,02,16,13,719.10
2013,06,02,16,14,726.00
2013,06,02,16,15,717.00
2013,06,02,16,16,703.70
2013,06,02,16,17,671.50
2013,06,02,16,18,659.80
2013,06,02,16,19,708.90
2013,06,02,16,20,735.10
2013,06,02,16,21,732.90
2013,06,02,16,22,735.50
2013,06,02,16,23,732.30
2013,06,02,16,24,728.50
2013,06,02,16,25,728.00
2013,06,02,16,26,728.00
2013,06,02,16,27,726.10
2013,06,02,16,28,721.80
2013,06,02,16,29,682.50
2013,06,02,16,30,691.00
2013,06,02,16,31,690.20
2013,06,02,16,32,684.10
2013,06,02,16,33,665.60
2013,06,02,16,34,642.90
2013,06,02,16,35,681.50
2013,06,02,16,36,697.90
2013,06,02,16,37,695.70
2013,06,02,16,38,695.80
2013,06,02,16,39,690.90
2013,06,02,16,40,685.30
2013,06,02,16,41,680.30
2013,06,02,16,42,672.40
2013,06,02,16,43,642.70
2013,06,02,16,44,661.90
2013,06,02,16,45,639.20
2013,06,02,16,46,635.90
2013,06,02,16,47,661.60
2013,06,02,16,48,660.10
2013,06,02,16,49,662.60
2013,06,02,16,50,656.40
2013,06,02,16,51,663.40
2013,06,02,16,52,670.40
2013,06,02,16,53,659.90
2013,06,02,16,54,665.80
2013,06,02,16,55,655.40
2013,06,02,16,56,661.00
2013,06,02,16,57,656.80
2013,06,02,16,58,646.60
2013,06,02,16,59,649.00
2013,06,02,17,00,644.90
2013,06,02,17,01,640.40
2013,06,02,17,02,637.00
2013,06,02,17,03,634.40
2013,06,02,17,04,630.80
2013,06,02,17,05,628.40
2013,06,02,17,06,626.70
2013,06,02,17,07,624.60